SCP
0 0 0 0 0 0 0 0 0 -0 -0 0 0 0 0 0 0 0 0 0 0 0 0 0 0 0 0 0 0 0 0 0
0 0 0 0 0 0 0 0 0 -0 -0 -0 0 0 0 0 0 0 0 0 0 0 0 0 0 0 0 0 0 0 0 0
0 0 0 0 0 0 0 0 0 -0 -0 -0 -0 0 0 0 0 0 0 0 0 0 0 0 0 0 0 0 0 0 0 0
0 0 0 0 0 0 0 0 0 0 -0 -0 -0 -0 0 0 0 0 0 0 0 0 0 0 0 0 0 0 0 0 0 0
0 0 0 0 0 0 0 0 0 0 0 0 0 -0 0 0 0 0 0 0 0 0 0 0 0 0 0 0 0 0 0 0
0 0 0 0 0 0 0 0 0 0 0 0 0 0 0 0 0 0 0 0 0 0 0 0 0 0 0 0 0 0 0 0
0 0 0 0 0 0 0 0 0 0 0 0 0 0 0 0 0 0 0 0 0 0 0 0 0 0 0 0 0 0 0 0
0 0 0 0 0 0 0 0 0 0 0 0 0 0 0 0 0 0 0 0 0 0 0 0 0 0 0 0 0 0 0 0
0 0 0 0 0 0 -0 -0 -0 0 0 0 0 0 0 0 0 0 0 0 0 0 0 0 0 0 0 0 0 0 0 0
0 -0 -0 -0 -0 0 0 0 0 0 0 0 0 0 0 0 0 0 0 0 0 0 0 0 0 0 0 0 0 0 0 0
0 -0 -0 -0 -0 -0 -0 -0 0 0 0 0 0 0 0 0 0 0 0 0 0 -0 -0 -0 -0 -0 0 0 0 0 0 0
0 0 0 0 0 0 0 0 0 0 0 0 0 0 0 0 0 0 0 0 0 -0 -0 -0 -0 -0 0 0 -0 -0 0 0
0 0 0 0 0 0 0 0 0 0 0 0 0 0 0 0 -0 -0 -0 0 -0 -0 -0 -0 -0 -0 -0 0 -0 -0 0 0
0 0 0 0 0 0 0 0 0 0 0 0 0 0 0 0 0 0 0 0 -0 -0 -0 -0 -0 -0 -0 0 0 0 0 0
0 0 0 0 0 0 0 0 0 0 0 0 0 0 0 0 0 0 0 0 0 0 -0 -0 -0 0 0 0 0 0 0 0
0 0 0 0 0 0 0 0 0 0 0 0 0 0 0 0 0 0 0 0 0 0 0 0 0 0 0 0 0 0 0 0
0 0 0 0 0 0 0 0 0 0 0 0 0 0 0 0 -0 0 -0 0 -0 -0 0 0 0 0 0 0 0 0 0 0
0 0 0 0 0 0 0 0 0 0 0 0 0 0 0 0 0 0 0 0 0 0 0 0 0 0 0 0 0 0 0 0
0 0 0 0 0 0 0 0 0 0 0 0 0 0 0 0 0 0 0 0 0 0 0 0 0 0 0 0 0 0 0 0
0 0 0 0 0 0 0 0 0 0 0 0 0 0 0 0 0 0 0 0 0 0 0 0 0 0 0 0 0 0 0 0
Wind_Speed_500mb
29 34 30 30 30 29 29 30 29 25 23 19 16 15 18 21 24 21 24 29 32 32 28 29 29 33 37 40 39 45 56 59
28 26 27 26 26 27 26 24 21 20 18 12 8 8 12 17 15 17 18 15 15 23 21 27 27 30 26 27 32 38 41 50
23 22 21 21 22 23 22 20 18 17 12 8 4 5 7 8 12 16 18 16 18 20 21 22 28 24 24 26 33 35 35 34
15 14 16 17 19 19 18 17 16 13 9 5 1 4 7 9 11 14 12 15 16 18 21 25 32 35 35 35 34 31 31 28
10 11 13 15 16 15 16 14 13 11 9 7 7 7 9 11 12 14 15 16 17 20 23 28 32 34 36 34 34 35 31 29
3 7 11 12 13 13 14 14 15 13 13 13 12 12 13 14 17 20 24 30 32 35 38 40 41 40 38 38 38 38 39 39
7 7 9 13 15 14 15 17 17 21 23 21 21 23 25 27 31 34 37 40 47 50 51 48 48 46 40 41 43 44 43 44
11 10 11 17 18 18 20 20 24 28 30 30 31 33 35 37 40 45 46 44 46 48 48 55 49 45 41 36 37 38 37 36
18 17 19 21 23 25 29 32 35 35 41 43 41 39 40 40 42 44 47 43 42 42 41 39 41 37 34 30 29 30 31 29
24 25 27 28 31 32 30 30 31 28 32 33 33 35 36 34 32 33 34 34 33 33 33 33 34 31 28 24 23 22 23 22
32 36 36 34 30 24 24 24 23 24 27 29 28 22 24 26 26 25 23 24 25 26 24 24 24 23 21 19 17 16 15 15
39 36 31 28 26 26 22 21 21 21 21 21 20 19 18 19 19 20 20 20 20 18 18 17 16 16 14 12 11 10 9 9
44 39 34 32 30 27 26 23 21 19 17 16 15 14 14 15 14 14 14 14 13 13 12 12 13 12 12 10 8 4 3 1
45 42 40 36 33 30 27 26 24 22 21 19 17 16 14 13 13 13 12 11 11 11 11 11 10 9 8 7 7 7 8 10
52 50 46 42 39 31 33 31 30 29 26 25 24 23 23 22 21 20 18 16 15 14 13 14 13 13 14 15 15 16 18 21
59 54 48 46 43 40 39 39 37 35 34 33 31 29 28 27 27 26 25 25 24 21 23 23 21 18 26 25 25 27 30 35
65 60 53 51 48 47 47 45 43 43 42 39 37 36 35 34 34 32 30 33 31 31 34 32 32 33 36 35 36 37 40 50
69 60 55 57 57 53 53 52 51 50 46 44 45 45 45 44 43 42 40 42 43 42 42 42 40 41 42 45 47 49 51 60
68 66 63 63 64 57 58 58 57 55 51 52 52 52 51 51 51 50 50 50 51 49 50 51 51 52 52 52 55 63 64 70
63 66 70 71 69 63 63 65 63 61 60 59 58 58 58 58 59 60 61 63 63 58 58 57 58 61 62 64 70 75 78 80
Wind_Direction_500mb
310 316 318 320 324 323 320 322 321 318 306 299 288 265 247 235 240 249 254 245 243 238 235 230 222 220 217 218 216 225 229 227
317 320 318 328 329 332 327 327 328 328 317 306 290 251 231 213 223 244 243 235 222 238 222 213 224 213 211 216 217 217 224 227
324 325 334 336 343 344 345 344 344 343 336 324 284 217 207 205 216 224 223 236 248 235 229 202 202 204 201 207 212 209 208 205
311 323 342 349 353 355 1 2 359 359 7 11 212 176 182 189 194 202 220 229 220 214 208 199 197 187 182 188 187 187 191 193
324 349 7 6 8 15 19 20 20 24 37 74 107 140 160 166 168 170 176 181 183 177 171 164 160 158 159 162 165 159 158 154
15 46 40 35 39 41 45 52 53 64 82 92 102 118 132 143 146 147 151 144 139 137 138 136 134 134 138 143 142 142 146 145
141 107 88 76 65 61 67 68 72 77 81 91 103 114 115 119 123 127 128 129 131 128 126 124 122 123 125 130 130 132 134 132
155 135 105 100 94 89 86 83 82 80 83 86 94 103 109 113 116 114 111 110 109 113 118 117 116 114 115 120 125 127 129 129
159 145 131 121 112 112 109 105 100 99 99 97 95 95 101 103 103 103 102 102 108 110 108 109 111 115 121 126 130 132 128 125
157 151 144 134 128 125 112 113 119 117 112 109 107 110 109 105 103 110 119 124 125 123 125 126 123 125 127 130 132 131 128 126
158 154 151 146 146 143 140 141 136 125 120 118 119 119 120 119 119 120 120 121 119 122 124 123 126 127 129 133 132 129 126 124
169 164 165 168 165 157 157 154 154 149 144 139 135 134 133 130 130 131 134 133 130 130 129 130 129 130 131 129 131 131 134 139
185 187 185 184 183 180 176 173 173 171 167 160 156 155 154 148 147 147 147 143 141 141 141 143 148 151 155 161 163 167 174 209
194 197 202 204 203 201 192 194 197 197 193 191 188 184 183 183 183 187 188 184 182 187 192 194 197 202 210 225 235 244 244 252
207 211 214 215 215 209 209 211 213 213 213 214 212 210 209 209 209 211 213 215 218 223 229 235 238 244 253 258 263 268 271 272
220 224 224 223 223 219 222 222 223 224 224 225 226 229 230 231 231 231 231 235 239 244 249 256 259 267 264 269 272 273 275 275
230 231 231 230 230 228 229 231 231 233 236 238 239 239 241 243 246 248 249 255 257 258 261 261 262 262 268 270 272 273 273 273
239 241 238 235 236 234 235 237 238 241 242 244 246 247 249 251 253 254 254 255 257 259 263 268 269 267 268 271 273 273 274 273
245 245 245 243 242 239 239 242 245 247 249 250 252 255 257 259 261 263 264 263 264 265 267 268 271 274 276 277 276 272 270 272
252 249 246 248 246 243 242 244 247 250 252 254 257 260 263 265 267 268 270 271 272 271 266 270 275 276 276 275 271 273 274 275
Wind_Speed_850mb
29 34 30 30 30 29 29 30 29 25 23 19 16 15 18 21 24 21 24 29 32 32 28 29 29 33 37 40 39 45 56 59
28 26 27 26 26 27 26 24 21 20 18 12 8 8 12 17 15 17 18 15 15 23 21 27 27 30 26 27 32 38 41 50
23 22 21 21 22 23 22 20 18 17 12 8 4 5 7 8 12 16 18 16 18 20 21 22 28 24 24 26 33 35 35 34
15 14 16 17 19 19 18 17 16 13 9 5 1 4 7 9 11 14 12 15 16 18 21 25 32 35 35 35 34 31 31 28
10 11 13 15 16 15 16 14 13 11 9 7 7 7 9 11 12 14 15 16 17 20 23 28 32 34 36 34 34 35 31 29
3 7 11 12 13 13 14 14 15 13 13 13 12 12 13 14 17 20 24 30 32 35 38 40 41 40 38 38 38 38 39 39
7 7 9 13 15 14 15 17 17 21 23 21 21 23 25 27 31 34 37 40 47 50 51 48 48 46 40 41 43 44 43 44
11 10 11 17 18 18 20 20 24 28 30 30 31 33 35 37 40 45 46 44 46 48 48 55 49 45 41 36 37 38 37 36
18 17 19 21 23 25 29 32 35 35 41 43 41 39 40 40 42 44 47 43 42 42 41 39 41 37 34 30 29 30 31 29
24 25 27 28 31 32 30 30 31 28 32 33 33 35 36 34 32 33 34 34 33 33 33 33 34 31 28 24 23 22 23 22
32 36 36 34 30 24 24 24 23 24 27 29 28 22 24 26 26 25 23 24 25 26 24 24 24 23 21 19 17 16 15 15
39 36 31 28 26 26 22 21 21 21 21 21 20 19 18 19 19 20 20 20 20 18 18 17 16 16 14 12 11 10 9 9
44 39 34 32 30 27 26 23 21 19 17 16 15 14 14 15 14 14 14 14 13 13 12 12 13 12 12 10 8 4 3 1
45 42 40 36 33 30 27 26 24 22 21 19 17 16 14 13 13 13 12 11 11 11 11 11 10 9 8 7 7 7 8 10
52 50 46 42 39 31 33 31 30 29 26 25 24 23 23 22 21 20 18 16 15 14 13 14 13 13 14 15 15 16 18 21
59 54 48 46 43 40 39 39 37 35 34 33 31 29 28 27 27 26 25 25 24 21 23 23 21 18 26 25 25 27 30 35
65 60 53 51 48 47 47 45 43 43 42 39 37 36 35 34 34 32 30 33 31 31 34 32 32 33 36 35 36 37 40 50
69 60 55 57 57 53 53 52 51 50 46 44 45 45 45 44 43 42 40 42 43 42 42 42 40 41 42 45 47 49 51 60
68 66 63 63 64 57 58 58 57 55 51 52 52 52 51 51 51 50 50 50 51 49 50 51 51 52 52 52 55 63 64 70
63 66 70 71 69 63 63 65 63 61 60 59 58 58 58 58 59 60 61 63 63 58 58 57 58 61 62 64 70 75 78 80
Wind_Direction_850mb
310 316 318 320 324 323 320 322 321 318 306 299 288 265 247 235 240 249 254 245 243 238 235 230 222 220 217 218 216 225 229 227
317 320 318 328 329 332 327 327 328 328 317 306 290 251 231 213 223 244 243 235 222 238 222 213 224 213 211 216 217 217 224 227
324 325 334 336 343 344 345 344 344 343 336 324 284 217 207 205 216 224 223 236 248 235 229 202 202 204 201 207 212 209 208 205
311 323 342 349 353 355 1 2 359 359 7 11 212 176 182 189 194 202 220 229 220 214 208 199 197 187 182 188 187 187 191 193
324 349 7 6 8 15 19 20 20 24 37 74 107 140 160 166 168 170 176 181 183 177 171 164 160 158 159 162 165 159 158 154
15 46 40 35 39 41 45 52 53 64 82 92 102 118 132 143 146 147 151 144 139 137 138 136 134 134 138 143 142 142 146 145
141 107 88 76 65 61 67 68 72 77 81 91 103 114 115 119 123 127 128 129 131 128 126 124 122 123 125 130 130 132 134 132
155 135 105 100 94 89 86 83 82 80 83 86 94 103 109 113 116 114 111 110 109 113 118 117 116 114 115 120 125 127 129 129
159 145 131 121 112 112 109 105 100 99 99 97 95 95 101 103 103 103 102 102 108 110 108 109 111 115 121 126 130 132 128 125
157 151 144 134 128 125 112 113 119 117 112 109 107 110 109 105 103 110 119 124 125 123 125 126 123 125 127 130 132 131 128 126
158 154 151 146 146 143 140 141 136 125 120 118 119 119 120 119 119 120 120 121 119 122 124 123 126 127 129 133 132 129 126 124
169 164 165 168 165 157 157 154 154 149 144 139 135 134 133 130 130 131 134 133 130 130 129 130 129 130 131 129 131 131 134 139
185 187 185 184 183 180 176 173 173 171 167 160 156 155 154 148 147 147 147 143 141 141 141 143 148 151 155 161 163 167 174 209
194 197 202 204 203 201 192 194 197 197 193 191 188 184 183 183 183 187 188 184 182 187 192 194 197 202 210 225 235 244 244 252
207 211 214 215 215 209 209 211 213 213 213 214 212 210 209 209 209 211 213 215 218 223 229 235 238 244 253 258 263 268 271 272
220 224 224 223 223 219 222 222 223 224 224 225 226 229 230 231 231 231 231 235 239 244 249 256 259 267 264 269 272 273 275 275
230 231 231 230 230 228 229 231 231 233 236 238 239 239 241 243 246 248 249 255 257 258 261 261 262 262 268 270 272 273 273 273
239 241 238 235 236 234 235 237 238 241 242 244 246 247 249 251 253 254 254 255 257 259 263 268 269 267 268 271 273 273 274 273
245 245 245 243 242 239 239 242 245 247 249 250 252 255 257 259 261 263 264 263 264 265 267 268 271 274 276 277 276 272 270 272
252 249 246 248 246 243 242 244 247 250 252 254 257 260 263 265 267 268 270 271 272 271 266 270 275 276 276 275 271 273 274 275